Weather History for KBTR - March, 2013

Change the Weather History Date:

Sunday, March 17, 2013

  Actual Average Record
Temperature  
Mean Temperature 68 °F 62 °F  
Max Temperature 80 °F 73 °F 91 °F (1963)
Min Temperature 55 °F 51 °F 34 °F (1962)
Degree Days  
Heating Degree Days 0 5  
Month to date heating degree days 178 111  
Since 1 July heating degree days 1350 1446  
Cooling Degree Days 3 2  
Month to date cooling degree days 5 27  
Year to date cooling degree days 30 58  
Growing Degree Days 16 (Base 50)    
Moisture  
Dew Point 59 °F    
Average Humidity 74    
Maximum Humidity 100    
Minimum Humidity 47    
Precipitation  
Precipitation T in 0.13 in 3.24 in (1943)
Month to date precipitation 2.34 2.42  
Year to date precipitation 24.38 13.18  
Snow  
Snow 0.00 in - - ()
Month to date snowfall 0.0  
Since 1 July snowfall 0.0  
Snow Depth 0.00 in    
Sea Level Pressure  
Sea Level Pressure 29.90 in    
Wind  
Wind Speed 9 mph (SSE)    
Max Wind Speed 23 mph    
Max Gust Speed 28 mph    
Visibility 9 miles    
Events      
T = Trace of Precipitation, MM = Missing Value Source: NWS Daily Summary

Daily Weather History Graph

Daily Weather History Graph

Search for Another Location

Airport or City:

Trip Planner

Search our weather history database for the weather conditions in past years. The results will help you decide how hot, cold, wet, or windy it might be!

Date:

Astronomy

Mar. 17, 2013 Rise Set
Actual Time 7:11 AM CDT 7:14 PM CDT
Civil Twilight 6:47 AM CDT 7:38 PM CDT
Nautical Twilight 6:19 AM CDT 8:06 PM CDT
Astronomical Twilight 5:51 AM CDT 8:34 PM CDT
Moon 10:47 AM CDT (3/17) 12:00 AM CDT (3/17)
Length of Visible Light 12h 50m
Length of Day
12h 02m
Waxing Crescent, 31% of the Moon is Illuminated
Mar 17
Waxing Crescent
Mar 19
First Quarter
Mar 27
Full
Apr 2
Last Quarter
Apr 10
New

Hourly Weather History & Observations

Time (CDT) Temp. Dew Point Humidity Pressure Visibility Wind Dir Wind Speed Gust Speed Precip Events Conditions
12:53 AM 60.1 °F 55.9 °F 86% 29.96 in 10.0 mi South 6.9 mph - N/A   Clear
1:53 AM 61.0 °F 57.0 °F 87% 29.95 in 10.0 mi South 8.1 mph - N/A   Clear
2:53 AM 61.0 °F 57.0 °F 87% 29.93 in 10.0 mi SSE 5.8 mph - N/A   Clear
3:53 AM 60.1 °F 57.0 °F 90% 29.92 in 10.0 mi SSE 5.8 mph - N/A   Clear
4:53 AM 55.9 °F 55.0 °F 97% 29.92 in 7.0 mi ENE 3.5 mph - N/A   Clear
5:53 AM 55.0 °F 54.0 °F 96% 29.92 in 5.0 mi ENE 4.6 mph - N/A   Clear
6:53 AM 55.9 °F 55.0 °F 97% 29.94 in 5.0 mi Calm Calm - N/A   Clear
7:12 AM 55.4 °F 55.4 °F 100% 29.94 in 5.0 mi East 3.5 mph - N/A   Mostly Cloudy
7:21 AM 55.4 °F 55.4 °F 100% 29.94 in 5.0 mi Calm Calm - N/A   Scattered Clouds
7:53 AM 57.0 °F 55.9 °F 96% 29.95 in 6.0 mi ESE 3.5 mph - N/A   Partly Cloudy
8:53 AM 59.0 °F 57.0 °F 93% 29.94 in 6.0 mi East 4.6 mph - N/A   Clear
9:53 AM 63.0 °F 59.0 °F 87% 29.96 in 8.0 mi Calm Calm - N/A   Clear
10:46 AM 69.8 °F 62.6 °F 78% 29.96 in 10.0 mi SSE 9.2 mph - N/A   Scattered Clouds
10:53 AM 70.0 °F 62.1 °F 76% 29.96 in 10.0 mi South 11.5 mph - N/A   Scattered Clouds
11:26 AM 73.4 °F 62.6 °F 69% 29.95 in 10.0 mi South 10.4 mph 19.6 mph N/A   Mostly Cloudy
11:53 AM 73.9 °F 62.1 °F 66% 29.94 in 10.0 mi South 11.5 mph - N/A   Scattered Clouds
12:53 PM 75.9 °F 61.0 °F 60% 29.91 in 10.0 mi South 16.1 mph 23.0 mph N/A   Mostly Cloudy
1:53 PM 75.9 °F 59.0 °F 56% 29.89 in 10.0 mi South 18.4 mph - N/A   Scattered Clouds
2:53 PM 78.1 °F 57.9 °F 50% 29.86 in 10.0 mi South 16.1 mph 23.0 mph N/A   Mostly Cloudy
3:53 PM 77.0 °F 57.0 °F 50% 29.85 in 10.0 mi SSW 13.8 mph 20.7 mph N/A   Mostly Cloudy
4:53 PM 77.0 °F 55.9 °F 48% 29.83 in 10.0 mi SSW 15.0 mph - N/A   Mostly Cloudy
5:53 PM 77.0 °F 55.9 °F 48% 29.81 in 10.0 mi SSW 10.4 mph - N/A   Clear
6:53 PM 73.0 °F 60.1 °F 64% 29.81 in 10.0 mi South 12.7 mph - N/A   Partly Cloudy
7:53 PM 72.0 °F 62.1 °F 71% 29.82 in 10.0 mi South 9.2 mph - N/A   Scattered Clouds
8:53 PM 70.0 °F 64.0 °F 81% 29.82 in 10.0 mi South 10.4 mph - 0.00 in   Mostly Cloudy
9:08 PM 71.6 °F 64.4 °F 78% 29.83 in 10.0 mi South 13.8 mph - N/A   Mostly Cloudy
9:53 PM 70.0 °F 64.9 °F 84% 29.83 in 10.0 mi SSE 9.2 mph - N/A   Mostly Cloudy
10:53 PM 69.1 °F 64.9 °F 87% 29.84 in 10.0 mi SSE 11.5 mph - N/A   Overcast
11:50 PM 69.8 °F 64.4 °F 83% 29.84 in 10.0 mi South 9.2 mph - 0.00 in   Overcast
11:53 PM 68.0 °F 64.9 °F 90% 29.84 in 10.0 mi South 11.5 mph - 0.00 in   Overcast